Location: Newark
(44.3789°N, 0.6828°W)
Time: 14:17:17
(UTC+00:00)

ISS - Visible Passes

Search period start: 20 August 2019 00:00
Search period end: 30 August 2019 00:00
Orbit: 410 x 420 km, 51.6° (Epoch: 20 August)

Date Brightness Start Highest point End Pass type
(mag) Time Alt. Az. Time Alt. Az. Time Alt. Az.
27 Aug -1.6 04:23:01 10° S 04:25:36 21° SE 04:28:12 10° E visible
28 Aug -1.1 03:35:32 10° SSE 03:36:58 13° SE 03:38:29 10° ESE visible
29 Aug -3.2 04:21:46 14° SW 04:24:23 52° SE 04:27:40 10° ENE visible
